RH
90 85 84 82 76 66 63 67 73 75 75 81 77 91 100 99 100 99 99 100 100 100 100 100 100 99 99 92 100 100 100 100 97 97 95 96 98 100 98 93 94 96 88
90 88 86 88 88 88 87 83 81 84 85 91 99 99 95 100 97 100 99 100 100 100 100 100 100 100 99 98 100 100 100 100 99 99 100 100 100 100 96 98 100 99 94
97 97 96 95 96 97 97 93 90 93 93 97 95 100 100 97 100 100 99 99 100 100 100 100 100 100 98 100 100 100 100 100 100 97 99 100 100 100 100 100 100 100 97
96 96 98 98 100 100 99 100 99 99 96 95 94 100 99 93 100 100 100 99 100 100 100 100 100 95 99 100 100 99 100 100 100 100 100 100 100 100 100 99 100 100 100
97 97 97 98 98 98 98 100 100 99 94 94 96 99 97 98 100 100 100 99 100 100 100 100 100 93 96 99 99 100 100 100 100 100 100 100 100 100 99 100 100 100 100
97 98 98 98 98 98 99 99 100 100 98 99 98 100 100 100 99 99 99 100 100 100 100 100 99 94 100 100 95 98 98 99 100 100 99 97 100 100 100 100 100 100 100
98 98 98 99 99 99 99 98 99 100 100 99 97 100 100 100 97 97 98 100 100 100 100 100 100 100 100 100 100 100 100 100 95 98 99 97 100 98 99 100 100 98 97
98 98 99 100 100 100 99 98 100 100 100 100 99 99 100 100 99 99 100 100 100 100 99 99 100 99 100 100 100 100 100 100 100 100 97 95 92 97 88 86 98 98 100
98 100 100 100 100 99 99 100 100 100 100 100 100 100 100 100 98 99 100 100 100 100 99 100 100 99 98 100 100 100 100 100 100 100 100 98 98 99 96 98 100 100 100
100 100 100 100 100 98 100 100 100 100 100 100 100 100 100 100 99 99 100 100 100 100 100 100 100 99 100 100 100 100 100 99 100 100 100 100 100 100 100 100 92 100 99
95 97 100 100 100 100 100 100 100 100 100 100 99 99 100 100 100 100 100 100 99 99 99 100 100 100 100 100 100 100 98 100 100 100 100 100 100 100 100 100 100 100 98
92 94 100 99 100 99 99 99 98 100 100 100 97 98 99 100 100 100 100 97 100 98 100 100 100 100 100 100 100 100 100 100 100 100 100 100 100 100 100 100 100 100 100
93 94 97 100 99 99 100 97 94 96 97 98 99 98 100 99 100 100 100 100 100 100 100 100 100 100 100 100 100 100 100 100 100 100 100 100 100 100 100 100 100 100 100
100 100 98 100 100 98 99 99 96 95 94 96 96 97 99 100 98 98 98 100 100 100 100 100 100 100 100 100 100 100 100 100 100 100 100 100 100 100 100 100 99 99 95
100 100 100 100 100 100 98 100 100 100 100 97 98 98 97 98 100 99 97 98 99 99 100 100 100 100 100 100 100 100 100 100 100 100 100 100 100 99 98 98 97 98 94
100 100 100 100 100 100 100 97 100 99 100 98 97 97 98 97 97 97 99 94 98 96 97 100 100 100 100 100 100 100 100 100 100 100 99 98 98 96 96 96 96 96 96
100 95 94 98 100 100 100 99 96 94 96 99 99 98 98 98 96 97 97 97 96 96 96 98 99 100 100 100 100 99 100 99 97 96 96 96 96 96 96 96 95 87 83
96 93 92 96 99 100 100 100 100 97 96 96 96 98 98 98 98 98 96 96 96 96 96 96 96 96 97 97 96 96 96 96 96 96 96 96 96 94 90 89 83 80 71
96 96 94 92 93 94 96 98 98 99 98 97 96 94 95 98 97 98 98 96 96 96 97 96 97 96 96 96 96 96 96 96 92 82 84 83 74 55 61 55 54 55 55
95 95 95 95 95 95 94 98 100 100 100 100 100 100 96 95 94 97 96 97 97 96 96 96 96 94 93 91 89 85 78 70 60 54 50 48 48 47 52 53 52 54 59
95 94 94 94 95 94 92 98 99 100 100 100 100 100 98 100 100 100 100 97 96 96 96 95 94 91 90 89 86 83 78 71 62 58 56 56 54 56 58 60 64 68 70
93 94 93 95 90 90 93 87 91 94 97 98 97 94 91 96 100 100 100 100 97 95 95 91 90 89 86 83 81 79 77 74 69 67 67 66 65 66 66 65 64 61 60
86 84 84 82 82 81 82 86 86 88 93 94 94 93 93 97 99 100 100 98 96 94 92 87 86 88 87 86 84 82 81 81 78 72 72 73 73 71 69 70 67 61 57
91 87 87 87 84 83 82 82 83 86 90 89 90 95 96 96 97 96 95 94 93 92 90 89 91 92 90 89 88 86 86 85 81 80 73 68 70 70 69 70 68 67 68
94 94 94 95 92 89 87 87 87 86 87 87 88 90 89 90 91 84 71 61 56 54 56 63 72 73 71 81 89 90 88 84 76 73 71 72 74 76 77 78 78 80 81
95 95 95 94 95 95 92 90 89 87 89 90 88 82 80 84 86 82 80 74 66 58 50 47 46 42 40 40 43 51 60 65 63 60 59 59 61 71 76 77 80 78 80
Wind_Speed
25 23 20 20 19 17 16 17 18 21 22 24 28 31 30 31 33 31 30 29 31 30 34 33 33 32 30 28 26 27 24 22 10 10 20 21 32 34 35 33 32 31 32
28 26 26 22 21 19 19 19 20 23 24 25 25 30 32 32 33 33 30 28 31 32 34 32 32 31 29 26 27 26 24 25 18 9 18 21 23 36 38 32 29 25 26
28 23 20 21 22 21 22 23 22 23 25 24 26 30 32 34 32 33 33 32 32 35 34 34 33 32 28 26 27 24 24 25 25 16 12 20 21 30 28 26 24 22 18
21 21 23 26 26 24 23 23 25 24 26 25 27 28 31 33 33 31 33 33 33 33 35 35 35 34 30 30 27 27 25 24 22 19 15 18 21 26 30 26 20 20 20
22 25 27 26 25 25 24 24 26 26 26 28 28 27 29 31 32 33 32 33 32 31 34 34 34 32 31 32 28 27 26 24 20 19 14 11 16 20 24 26 20 25 20
20 23 24 25 28 28 28 28 28 27 26 27 28 27 24 28 31 33 31 31 32 32 31 33 31 28 29 28 27 26 27 27 22 18 18 19 19 23 23 28 26 15 5
28 26 26 29 30 30 30 29 28 29 28 29 28 25 24 28 28 31 31 34 33 30 30 30 29 29 27 26 26 25 27 28 26 29 24 23 21 32 31 30 29 26 14
26 26 28 29 31 32 30 29 29 28 28 28 27 24 24 27 29 30 34 35 32 32 28 30 30 29 28 26 26 29 29 30 29 29 30 31 33 33 37 38 37 27 14
26 26 28 29 29 30 30 31 28 28 28 27 27 22 24 26 31 32 38 30 26 27 28 28 27 26 25 26 24 26 23 22 27 30 28 27 30 30 35 34 30 25 5
27 27 26 28 29 29 31 30 27 26 25 21 17 15 26 28 30 37 39 27 28 27 25 26 26 25 25 24 25 28 27 24 21 21 22 22 23 30 37 38 39 28 15
28 27 27 31 31 31 32 30 27 27 23 21 17 13 8 10 26 36 40 34 32 28 26 22 22 21 22 22 21 26 28 26 21 20 19 18 17 19 21 20 28 31 31
26 27 27 30 29 32 32 35 31 29 24 23 25 23 21 16 6 27 41 34 30 31 25 20 20 21 22 23 21 23 22 26 24 23 23 20 18 16 15 14 14 15 14
27 27 28 26 27 29 33 33 33 31 27 24 21 22 25 25 21 12 21 29 32 30 24 22 21 22 23 18 17 19 25 26 26 25 23 20 19 19 18 19 18 19 20
21 23 24 22 23 27 30 32 32 36 30 28 26 24 24 28 21 17 22 27 33 32 31 28 25 24 24 22 22 23 21 23 26 26 26 24 22 22 21 22 24 25 28
22 24 27 25 26 26 25 28 31 38 38 31 28 27 25 25 27 18 18 22 25 25 27 29 27 24 25 23 21 20 19 20 22 24 26 26 25 25 24 22 18 17 23
18 19 21 22 23 24 26 25 26 30 34 38 39 34 27 29 28 27 26 26 22 25 23 25 24 22 22 22 23 23 23 24 24 24 26 26 26 26 24 23 25 27 24
19 23 23 25 25 25 25 23 23 31 30 31 34 36 35 31 27 29 32 35 31 31 29 25 26 23 21 23 25 26 25 26 26 28 27 26 27 27 26 27 27 28 24
20 21 22 24 24 24 23 23 23 23 23 28 31 31 31 33 34 30 27 35 36 36 29 26 26 25 24 26 26 27 27 28 28 28 29 27 25 26 24 20 22 26 25
23 21 20 21 23 23 24 23 23 23 23 23 27 33 33 30 34 35 37 36 30 29 29 30 28 30 31 32 31 31 31 30 30 29 27 27 27 28 27 26 24 24 24
21 21 20 21 23 23 24 23 22 22 23 24 27 28 28 33 37 35 37 34 32 31 31 31 32 32 32 32 31 30 29 28 28 28 27 26 26 27 27 25 23 22 21
20 21 21 22 22 21 21 21 21 21 20 21 24 28 30 30 28 30 33 34 33 33 32 32 31 30 29 28 28 28 28 28 26 25 24 23 23 24 22 22 21 21 20
19 20 21 21 20 21 20 21 21 22 22 23 24 27 30 33 32 33 33 32 31 30 30 30 30 29 28 27 26 26 27 26 24 23 22 22 21 20 20 19 18 16 14
19 20 21 21 21 21 22 22 22 21 21 22 22 24 27 28 29 29 29 27 27 27 26 27 27 27 25 24 23 22 23 22 20 17 18 19 18 17 17 17 16 16 15
18 19 19 19 20 21 21 21 21 21 21 21 21 22 23 23 24 24 24 23 23 23 23 23 23 22 21 21 21 20 20 19 17 16 14 15 16 14 14 14 14 14 14
16 17 18 18 18 18 18 19 20 20 20 20 20 20 20 20 21 21 21 20 20 20 20 20 19 18 17 17 16 16 15 14 14 13 11 11 12 12 12 12 11 10 9
16 16 16 16 15 15 15 16 17 17 18 18 18 18 19 19 18 18 19 19 19 19 19 19 18 16 15 15 14 12 11 12 12 12 11 10 10 11 9 10 9 8 7
Wind_Direction
32 25 20 16 6 357 340 320 306 293 281 267 254 251 248 234 231 220 218 224 216 214 212 214 215 218 221 226 223 225 220 220 227 215 218 213 207 207 206 209 222 233 233
22 15 15 7 358 349 335 321 310 297 285 269 268 258 246 238 227 219 220 218 214 205 211 209 210 214 216 219 217 218 223 226 217 186 194 197 196 202 203 208 222 224 228
11 6 2 359 351 339 330 324 316 303 292 280 265 257 242 237 225 218 220 222 216 215 213 207 206 208 209 209 212 216 221 222 216 207 180 178 180 188 192 202 206 212 222
358 359 359 355 347 337 326 319 312 303 297 286 270 262 241 234 229 216 218 223 220 216 214 214 211 211 207 207 210 215 214 209 205 199 193 182 169 182 190 183 176 188 194
2 3 355 346 337 334 330 321 314 311 302 295 282 271 243 233 226 215 219 221 217 208 209 212 211 214 218 216 215 211 207 203 196 200 196 176 170 165 179 183 169 174 169
1 2 348 343 341 338 332 326 318 313 308 299 282 269 245 227 221 221 226 217 210 202 198 205 214 218 217 220 227 226 224 204 195 197 193 191 180 178 178 176 163 152 169
8 357 345 348 340 335 329 324 320 314 308 299 282 271 245 232 236 234 234 211 206 200 198 199 204 214 219 219 223 228 226 230 228 211 197 196 183 187 183 180 181 177 178
2 354 351 346 341 335 330 326 320 314 306 295 288 275 248 233 235 233 223 207 202 201 205 204 207 212 214 216 217 211 211 211 214 213 211 207 208 197 203 202 194 186 174
2 356 353 347 341 336 332 328 322 317 309 301 291 276 234 235 237 230 215 199 189 189 202 209 215 214 217 214 209 206 199 202 212 211 209 215 216 211 213 203 187 174 142
359 357 353 351 350 344 339 333 329 325 315 318 306 269 241 240 231 224 209 182 177 184 193 204 212 209 205 207 210 202 190 192 191 191 202 210 203 197 202 206 208 182 165
8 6 2 4 359 353 350 350 347 346 347 3 10 2 346 228 221 213 193 187 185 173 180 185 192 199 202 204 208 205 206 195 181 175 170 171 174 183 184 194 198 199 181
15 18 13 11 7 3 5 4 4 5 3 9 26 18 20 23 249 200 193 192 187 173 165 170 176 185 190 193 194 197 194 180 169 158 147 137 136 136 144 150 164 174 187
11 18 19 13 15 14 16 14 16 17 16 14 20 24 16 22 40 119 170 178 172 159 153 150 155 165 170 163 160 172 169 163 158 146 132 125 128 127 126 123 122 124 121
5 9 19 15 14 23 27 25 26 27 23 21 23 25 24 26 27 44 98 120 133 137 137 133 135 137 139 140 141 147 150 155 154 144 133 130 128 124 121 122 118 117 109
7 8 12 13 16 23 24 30 31 33 33 31 25 30 37 36 32 58 75 85 116 116 120 118 112 109 103 105 109 116 123 129 129 131 126 123 122 120 114 118 115 113 105
10 11 9 12 16 20 23 15 37 36 36 40 38 37 41 53 54 53 74 87 80 96 80 87 82 84 88 92 92 91 101 110 114 116 116 116 112 110 109 109 112 105 101
17 23 24 26 22 20 21 16 14 28 41 37 33 36 40 44 51 57 63 74 77 89 77 69 77 76 79 87 93 93 91 100 116 112 108 106 107 106 108 107 109 112 105
30 30 30 30 30 30 26 26 24 22 18 17 36 35 35 43 50 53 63 79 61 62 63 66 69 75 77 78 84 94 99 106 107 107 108 108 108 110 107 103 110 114 117
35 34 35 36 36 37 35 33 34 32 29 26 29 44 49 51 57 57 62 62 62 60 61 63 67 74 80 87 92 97 101 103 106 109 112 117 118 117 114 118 117 117 119
40 43 42 42 38 35 37 35 32 34 36 34 34 27 39 55 51 47 55 58 61 65 69 73 78 85 89 94 96 100 105 107 106 105 106 111 117 118 116 115 116 113 110
43 47 49 50 49 45 44 40 40 40 40 43 43 53 62 60 54 56 60 65 69 74 78 82 83 87 90 94 99 100 99 99 100 103 105 108 116 116 118 116 114 113 114
47 50 52 52 53 56 56 57 57 55 53 51 54 62 67 68 67 69 70 72 75 80 83 86 86 87 88 93 96 97 96 97 100 105 109 113 116 119 118 114 112 110 110
47 53 56 57 59 61 64 64 64 65 66 66 64 63 64 68 71 73 74 76 78 80 82 84 85 84 87 90 91 93 94 92 93 100 107 111 113 112 111 108 108 105 102
47 52 56 58 59 63 64 66 68 68 68 70 71 72 74 75 76 77 78 79 80 80 81 81 81 82 86 89 92 92 92 94 97 95 99 108 107 106 107 108 104 103 100
47 52 55 57 60 62 65 66 67 68 69 71 72 74 77 79 79 80 81 81 82 82 81 80 81 82 84 86 87 87 86 90 93 94 99 106 109 109 108 106 106 105 105
47 51 55 57 60 61 63 66 68 67 68 68 70 72 75 76 79 81 80 78 76 76 78 76 74 73 76 79 80 84 87 88 91 93 93 99 103 105 106 108 109 107 105